Pole para Nicolás Posco - TN C2

Pole para Nicolás Posco - TN C2

 Lo hizo a bordo del Ford Fiesta Kinetic del equipo Ale Bucci Racing,  el tiempo obtenido fue de 1m54s680 en el trazado de San Luis.

 Con dicha pole position, Nicolás Posco   tiene a su favor 22 unidades. El líder del certamen, Gastón Iansa, está ausente debido al aislamiento por protocolo de prevención de coronavirusi, mientras que Agustín Herrera tiene 34 unidades.

 

 

2° CLASIFICACIÓN TURISMO NACIONAL CLASE 2
AUTÓDROMO JOSÉ CARLOS BASSI
Puesto Nro Piloto Marca Vtas Tiempo Dif.
1 3 NICOLAS POSCO FIESTA KINETIC 1 1:54.680  
2 29 CHRISTIAN ABDALA TOYOTA ETIOS 4 1:55.367 0.687
3 14 FACUNDO LEANEZ TOYOTA ETIOS 3 1:55.675 0.995
4 9 MARCOS FERNANDEZ NISSAN MARCH 4 1:55.688 1.008
5 6 GERONIMO NUÑEZ TOYOTA ETIOS 4 1:55.716 1.036
6 87 YAMIL APUD RENAULT CLIO 4 1:55.923 1.243
7 95 EMANUEL ABDALA TOYOTA ETIOS 2 1:56.053 1.373
8 72 LUCAS TEDESCHI TOYOTA ETIOS 4 1:56.079 1.399
9 17 RENZO TESTA FIAT ARGO 5 1:56.084 1.404
10 69 AGUSTIN HERRERA TOYOTA ETIOS 4 1:56.106 1.426
11 8 JOEL BORGOBELLO VW TREND 3 1:56.132 1.452
12 84 LUCAS YEROBI RENAULT CLIO 4 1:56.193 1.513
13 12 MIGUEL CIAURRO VW TREND 4 1:56.262 1.582
14 75 JOSE LUIS ARRATE RENAULT CLIO 5 1:56.287 1.607
15 22 DIEGO LEANEZ TOYOTA ETIOS 3 1:56.326 1.646
16 33 SERGIO FERNANDEZ NISSAN MARCH 3 1:56.502 1.822
17 123 FABRICIO BENITEZ TOYOTA ETIOS 3 1:56.534 1.854
18 89 RENZO CERRETTI FIESTA KINETIC 4 1:56.538 1.858
19 31 IGNACIO PROCACITTO VW TREND 4 1:56.587 1.907
20 10 ALEJO BORGIANI VW TREND 3 1:56.590 1.910
21 11 MAXIMILIANO BESTANI FIESTA KINETIC 1 1:56.775 2.095
22 141 JUAN PABLO ROTONDO FIESTA KINETIC 4 1:56.827 2.147
23 154 FACUNDO ROTONDO FIESTA KINETIC 3 1:56.906 2.226
24 66 MARTIN ALESSI TOYOTA ETIOS 4 1:56.938 2.258
25 120 MATEO NUÑEZ NISSAN MARCH 4 1:56.948 2.268
26 94 GONZALO ANTOLIN RENAULT CLIO 4 1:56.979 2.299
27 30 ALEJANDRO VALDERREY FIAT ARGO 4 1:57.046 2.366
28 152 THIAGO MARTINEZ RENAULT CLIO 5 1:57.091 2.411
29 144 TOMAS BERGALLO TOYOTA ETIOS 4 1:57.120 2.440
30 97 GASTON CABRERA NISSAN MARCH 4 1:57.193 2.513
31 4 SEBASTIAN PEREZ CHEVROLET ONIX 4 1:57.250 2.570
32 121 FRANCO DE BENEDICTIS NISSAN MARCH 5 1:57.275 2.595
33 62 CHRISTIAN BODRATO MIONETTO FIAT PALIO 4 1:57.391 2.711
34 100 MAURO SALVI TOYOTA ETIOS 4 1:57.631 2.951
35 19 FERNANDO GOMEZ FREDES NISSAN MARCH 4 1:57.682 3.002
36 159 AGUSTIN BONOMO DS3 4 1:57.683 3.003
37 18 GABRIEL SCORDIA FIAT ARGO 3 1:57.864 3.184
38 77 MIGUEL OTERO RENAULT CLIO 5 1:58.909 4.229

 

RETIRO DE UNA VUELTA: DIEGO LEANEZ POR EXCEDER LÍMITES DEL CIRCUITO
PROMEDIO DEL 1°: 137,119 KM/H

 

 

GENERAL CLASIFICACIÓN TURISMO NACIONAL CLASE 2
AUTÓDROMO JOSE CARLOS BASSI
Puesto Nro Piloto Marca Vtas Tiempo Dif.
1 3 NICOLAS POSCO FIESTA KINETIC   1:54.680  
2 29 CHRISTIAN ABDALA TOYOTA ETIOS   1:55.367 0.687
3 14 FACUNDO LEANEZ TOYOTA ETIOS   1:55.675 0.995
4 9 MARCOS FERNANDEZ NISSAN MARCH   1:55.688 1.008
5 6 GERONIMO NUÑEZ TOYOTA ETIOS   1:55.716 1.036
6 87 YAMIL APUD RENAULT CLIO   1:55.923 1.243
7 95 EMANUEL ABDALA TOYOTA ETIOS   1:56.053 1.373
8 72 LUCAS TEDESCHI TOYOTA ETIOS   1:56.079 1.399
9 17 RENZO TESTA FIAT ARGO   1:56.084 1.404
10 69 AGUSTIN HERRERA TOYOTA ETIOS   1:56.106 1.426
11 8 JOEL BORGOBELLO VW TREND   1:56.132 1.452
12 84 LUCAS YEROBI RENAULT CLIO   1:56.193 1.513
13 12 MIGUEL CIAURRO VW TREND   1:56.262 1.582
14 75 JOSE LUIS ARRATE RENAULT CLIO   1:56.287 1.607
15 22 DIEGO LEANEZ TOYOTA ETIOS   1:56.326 1.646
16 33 SERGIO FERNANDEZ NISSAN MARCH   1:56.502 1.822
17 123 FABRICIO BENITEZ TOYOTA ETIOS   1:56.534 1.854
18 89 RENZO CERRETTI FIESTA KINETIC   1:56.538 1.858
19 31 IGNACIO PROCACITTO VW TREND   1:56.587 1.907
20 10 ALEJO BORGIANI VW TREND   1:56.590 1.910
21 11 MAXIMILIANO BESTANI FIESTA KINETIC   1:56.775 2.095
22 141 JUAN PABLO ROTONDO FIESTA KINETIC   1:56.827 2.147
23 154 FACUNDO ROTONDO FIESTA KINETIC   1:56.906 2.226
24 66 MARTIN ALESSI TOYOTA ETIOS   1:56.938 2.258
25 120 MATEO NUNEZ NISSAN MARCH   1:56.948 2.268
26 94 GONZALO ANTOLIN RENAULT CLIO   1:56.979 2.299
27 30 VALDERREY ALEJANDRO FIAT ARGO   1:57.046 2.366
28 152 THIAGO MARTINEZ RENAULT CLIO   1:57.091 2.411
29 144 TOMAS BERGALLO TOYOTA ETIOS   1:57.091 2.411
30 97 GASTON CABRERA NISSAN MARCH   1:57.193 2.513
31 4 SEBASTIAN PEREZ CHEVROLET ONIX   1:57.250 2.570
32 121 FRANCO DE BENEDICTIS NISSAN MARCH   1:57.275 2.595
33 62 CHRISTIAN BODRATO MIONETT FIAT PALIO   1:57.391 2.711
34 100 MAURO SALVI TOYOTA ETIOS   1:57.631 2.951
35 19 FERNANDO GOMEZ FREDES NISSAN MARCH   1:57.682 3.002
36 159 AGUSTIN BONOMO DS3   1:57.683 3.003
37 18 GABRIEL SCORDIA FIAT ARGO   1:57.864 3.184
38 77 MIGUEL OTERO RENAULT CLIO   1:58.909 4.229

 

PROMEDIO DEL 1°: 137,116 KM/H

 

 

Foto: APAT